Lexington, KY

5:59 PM EDT on May 26, 2018 (GMT -0400)
Blue Grass

Weather History for KLEX - December, 2012

Change the Weather History Date:

Wednesday, December 19, 2012

  Actual Average Record
Temperature  
Mean Temperature 45 °F 35 °F  
Max Temperature 53 °F 43 °F 68 °F (1889)
Min Temperature 37 °F 27 °F -4 °F (1963)
Degree Days  
Heating Degree Days 20 30  
Month to date heating degree days 331 527  
Since 1 July heating degree days 1393 1414  
Cooling Degree Days 0 0  
Month to date cooling degree days 0 0  
Year to date cooling degree days 1359 1190  
Moisture  
Dew Point 37 °F    
Average Humidity 73    
Maximum Humidity 92    
Minimum Humidity 54    
Precipitation  
Precipitation 0.00 in 0.12 in 1.48 in (2002)
Month to date precipitation 4.43 2.46  
Year to date precipitation 40.50 43.70  
Snow  
Snow 0.00 in 0.10 in 4.50 in (1936)
Month to date snowfall T 1.3  
Since 1 July snowfall T 1.6  
Snow Depth 0.00 in    
Sea Level Pressure  
Sea Level Pressure 30.00 in    
Wind  
Wind Speed 7 mph (ESE)    
Max Wind Speed 16 mph    
Max Gust Speed 22 mph    
Visibility 10 miles    
Events      
T = Trace of Precipitation, MM = Missing Value Source: NWS Daily Summary

Daily Weather History Graph

Daily Weather History Graph

Search for Another Location

Airport or City:

Astronomy

Dec. 19, 2012 Rise Set
Actual Time 7:50 AM EST 5:21 PM EST
Civil Twilight 7:20 AM EST 5:51 PM EST
Nautical Twilight 6:47 AM EST 6:24 PM EST
Astronomical Twilight 6:15 AM EST 6:56 PM EST
Moon 12:05 PM EST (12/19) No Moon Set
Length of Visible Light 10h 30m
Length of Day
9h 31m
Waxing Crescent, 45% of the Moon is Illuminated
Dec 19
Waxing Crescent
Dec 20
First Quarter
Dec 28
Full
Jan 4
Last Quarter
Jan 11
New

Hourly Weather History & Observations

Time (EST) Temp. Windchill Dew Point Humidity Pressure Visibility Wind Dir Wind Speed Gust Speed Precip Events Conditions
12:54 AM 45.0 °F 38.5 °F 35.1 °F 68% 29.86 in 10.0 mi SW 13.8 mph - N/A   Clear
1:54 AM 45.0 °F 39.3 °F 36.0 °F 71% 29.88 in 10.0 mi WSW 11.5 mph - N/A   Clear
2:54 AM 44.1 °F 38.1 °F 36.0 °F 73% 29.91 in 10.0 mi WSW 11.5 mph - N/A   Clear
3:54 AM 43.0 °F 37.7 °F 36.0 °F 76% 29.93 in 10.0 mi WSW 9.2 mph - N/A   Clear
4:54 AM 42.1 °F 37.1 °F 36.0 °F 79% 29.96 in 10.0 mi WSW 8.1 mph - N/A   Clear
5:54 AM 41.0 °F 38.0 °F 36.0 °F 82% 29.97 in 10.0 mi WSW 4.6 mph - N/A   Clear
6:54 AM 39.0 °F 36.8 °F 35.1 °F 86% 30.00 in 10.0 mi SW 3.5 mph - N/A   Clear
7:54 AM 37.9 °F - 35.1 °F 89% 30.03 in 10.0 mi Calm Calm - N/A   Clear
8:54 AM 39.9 °F 36.7 °F 37.0 °F 89% 30.06 in 10.0 mi NNW 4.6 mph - N/A   Clear
9:54 AM 42.1 °F 37.7 °F 37.0 °F 82% 30.06 in 10.0 mi NNE 6.9 mph - N/A   Clear
10:54 AM 43.0 °F 39.5 °F 37.0 °F 80% 30.08 in 10.0 mi ENE 5.8 mph - N/A   Clear
11:54 AM 46.0 °F - 37.9 °F 73% 30.07 in 10.0 mi Calm Calm - N/A   Clear
12:54 PM 46.9 °F - 39.0 °F 74% 30.05 in 10.0 mi Calm Calm - N/A   Clear
1:54 PM 50.0 °F - 39.0 °F 66% 30.04 in 10.0 mi Variable 3.5 mph - N/A   Clear
2:54 PM 53.1 °F - 37.9 °F 57% 30.03 in 10.0 mi Variable 4.6 mph - N/A   Clear
3:54 PM 50.0 °F - 39.9 °F 68% 30.03 in 10.0 mi ENE 3.5 mph - N/A   Clear
4:54 PM 48.9 °F - 39.9 °F 71% 30.04 in 10.0 mi East 6.9 mph - N/A   Clear
5:54 PM 45.0 °F 40.6 °F 39.0 °F 80% 30.04 in 10.0 mi ENE 8.1 mph - N/A   Clear
6:54 PM 45.0 °F 40.1 °F 37.9 °F 76% 30.04 in 10.0 mi East 9.2 mph - N/A   Clear
7:54 PM 45.0 °F 40.1 °F 39.0 °F 80% 30.04 in 10.0 mi East 9.2 mph - N/A   Overcast
8:54 PM 45.0 °F 39.7 °F 37.9 °F 76% 30.03 in 10.0 mi East 10.4 mph - N/A   Clear
9:54 PM 46.0 °F 40.6 °F 37.9 °F 73% 30.01 in 10.0 mi ESE 11.5 mph - N/A   Clear
10:54 PM 46.0 °F 39.9 °F 37.0 °F 71% 29.99 in 10.0 mi ESE 13.8 mph - N/A   Clear
11:54 PM 48.0 °F - 37.9 °F 68% 29.95 in 10.0 mi SE 11.5 mph - N/A   Clear